Time,TemperatureF,DewpointF,PressureIn,WindDirection,WindDirectionDegrees,WindSpeedMPH,WindSpeedGustMPH,Humidity,HourlyPrecipIn,Conditions,Clouds,dailyrainin,SoftwareType,DateUTC
2013-09-13 00:01:00,65.0,49.0,30.07,NNW,341,2.0,7.0,57,0.00,,,0.00,weatherlink.com 1.10,2013-09-13 05:01:00,
2013-09-13 00:16:00,64.9,49.0,30.07,NNW,348,3.0,9.0,57,0.00,,,0.00,weatherlink.com 1.10,2013-09-13 05:16:00,
2013-09-13 00:32:00,64.6,49.0,30.07,North,355,5.0,11.0,58,0.00,,,0.00,weatherlink.com 1.10,2013-09-13 05:32:00,
2013-09-13 00:46:00,64.3,49.0,30.07,NNW,347,4.0,9.0,59,0.00,,,0.00,weatherlink.com 1.10,2013-09-13 05:46:00,
2013-09-13 01:01:00,64.0,49.0,30.07,NNW,347,3.0,9.0,59,0.00,,,0.00,weatherlink.com 1.10,2013-09-13 06:01:00,
2013-09-13 01:16:00,63.4,50.0,30.07,North,355,5.0,9.0,61,0.00,,,0.00,weatherlink.com 1.10,2013-09-13 06:16:00,
2013-09-13 01:31:00,63.1,49.0,30.07,NW,325,5.0,8.0,61,0.00,,,0.00,weatherlink.com 1.10,2013-09-13 06:31:00,
2013-09-13 01:46:00,62.7,49.0,30.07,NNW,347,5.0,9.0,62,0.00,,,0.00,weatherlink.com 1.10,2013-09-13 06:46:00,
2013-09-13 02:01:00,62.1,50.0,30.07,North,5,6.0,7.0,64,0.00,,,0.00,weatherlink.com 1.10,2013-09-13 07:01:00,
2013-09-13 02:16:00,61.5,50.0,30.07,North,355,4.0,6.0,65,0.00,,,0.00,weatherlink.com 1.10,2013-09-13 07:16:00,
2013-09-13 02:31:00,60.9,50.0,30.07,NW,325,3.0,6.0,67,0.00,,,0.00,weatherlink.com 1.10,2013-09-13 07:31:00,
2013-09-13 02:46:00,60.2,50.0,30.07,North,355,2.0,5.0,68,0.00,,,0.00,weatherlink.com 1.10,2013-09-13 07:46:00,
2013-09-13 03:01:00,59.4,50.0,30.07,NNW,332,2.0,6.0,70,0.00,,,0.00,weatherlink.com 1.10,2013-09-13 08:01:00,
2013-09-13 03:16:00,58.4,50.0,30.08,NNW,333,0.0,6.0,73,0.00,,,0.00,weatherlink.com 1.10,2013-09-13 08:16:00,
2013-09-13 03:31:00,57.9,50.0,30.08,NNW,340,0.0,4.0,74,0.00,,,0.00,weatherlink.com 1.10,2013-09-13 08:31:00,
2013-09-13 03:46:00,57.4,50.0,30.07,NNW,348,1.0,4.0,76,0.00,,,0.00,weatherlink.com 1.10,2013-09-13 08:46:00,
2013-09-13 04:01:00,57.1,50.0,30.08,NNW,348,0.0,4.0,77,0.00,,,0.00,weatherlink.com 1.10,2013-09-13 09:01:00,
2013-09-13 04:16:00,56.7,50.0,30.08,NNW,348,2.0,3.0,78,0.00,,,0.00,weatherlink.com 1.10,2013-09-13 09:16:00,
2013-09-13 04:32:00,56.4,50.0,30.08,NNW,348,3.0,4.0,78,0.00,,,0.00,weatherlink.com 1.10,2013-09-13 09:32:00,
2013-09-13 04:47:00,56.0,50.0,30.08,NNW,348,2.0,4.0,79,0.00,,,0.00,weatherlink.com 1.10,2013-09-13 09:47:00,
2013-09-13 05:02:00,55.7,50.0,30.08,NNW,348,0.0,2.0,80,0.00,,,0.00,weatherlink.com 1.10,2013-09-13 10:02:00,
2013-09-13 05:17:00,55.1,50.0,30.08,NNW,348,1.0,4.0,82,0.00,,,0.00,weatherlink.com 1.10,2013-09-13 10:17:00,
2013-09-13 05:32:00,54.8,49.0,30.09,NNW,348,1.0,3.0,82,0.00,,,0.00,weatherlink.com 1.10,2013-09-13 10:32:00,
2013-09-13 05:47:00,54.7,50.0,30.09,NNW,348,0.0,2.0,83,0.00,,,0.00,weatherlink.com 1.10,2013-09-13 10:47:00,
2013-09-13 06:02:00,54.5,49.0,30.09,North,355,0.0,4.0,83,0.00,,,0.00,weatherlink.com 1.10,2013-09-13 11:02:00,
2013-09-13 06:17:00,54.3,50.0,30.09,NNW,331,2.0,4.0,84,0.00,,,0.00,weatherlink.com 1.10,2013-09-13 11:17:00,
2013-09-13 06:32:00,53.9,50.0,30.10,NNW,344,3.0,3.0,85,0.00,,,0.00,weatherlink.com 1.10,2013-09-13 11:32:00,
2013-09-13 06:47:00,53.7,50.0,30.10,NNW,344,1.0,5.0,86,0.00,,,0.00,weatherlink.com 1.10,2013-09-13 11:47:00,
2013-09-13 07:02:00,53.7,50.0,30.11,NNW,348,0.0,4.0,86,0.00,,,0.00,weatherlink.com 1.10,2013-09-13 12:02:00,
2013-09-13 07:17:00,54.6,50.0,30.11,NNW,336,2.0,4.0,85,0.00,,,0.00,weatherlink.com 1.10,2013-09-13 12:17:00,
2013-09-13 07:32:00,56.3,51.0,30.12,North,355,2.0,6.0,82,0.00,,,0.00,weatherlink.com 1.10,2013-09-13 12:32:00,
2013-09-13 07:47:00,57.6,52.0,30.12,North,351,4.0,7.0,80,0.00,,,0.00,weatherlink.com 1.10,2013-09-13 12:47:00,
2013-09-13 08:17:00,60.4,52.0,30.12,North,5,5.0,9.0,75,0.00,,,0.00,weatherlink.com 1.10,2013-09-13 13:17:00,
2013-09-13 08:32:00,61.5,53.0,30.11,NNE,26,7.0,9.0,73,0.00,,,0.00,weatherlink.com 1.10,2013-09-13 13:32:00,
2013-09-13 08:47:00,62.7,53.0,30.12,NE,40,3.0,7.0,71,0.00,,,0.00,weatherlink.com 1.10,2013-09-13 13:47:00,
2013-09-13 09:02:00,63.8,53.0,30.12,NNE,28,3.0,8.0,69,0.00,,,0.00,weatherlink.com 1.10,2013-09-13 14:02:00,
2013-09-13 09:17:00,64.5,53.0,30.12,NNW,340,6.0,8.0,67,0.00,,,0.00,weatherlink.com 1.10,2013-09-13 14:17:00,
2013-09-13 09:33:00,65.0,54.0,30.12,NNW,331,4.0,8.0,67,0.00,,,0.00,weatherlink.com 1.10,2013-09-13 14:33:00,
2013-09-13 09:48:00,65.9,53.0,30.12,NE,40,6.0,8.0,64,0.00,,,0.00,weatherlink.com 1.10,2013-09-13 14:48:00,
2013-09-13 10:03:00,66.4,54.0,30.12,ENE,57,4.0,9.0,64,0.00,,,0.00,weatherlink.com 1.10,2013-09-13 15:03:00,
2013-09-13 10:18:00,67.8,54.0,30.12,NE,55,6.0,9.0,62,0.00,,,0.00,weatherlink.com 1.10,2013-09-13 15:18:00,
2013-09-13 10:33:00,68.8,54.0,30.12,NE,34,8.0,10.0,60,0.00,,,0.00,weatherlink.com 1.10,2013-09-13 15:33:00,
2013-09-13 10:48:00,69.4,53.0,30.12,North,360,7.0,10.0,57,0.00,,,0.00,weatherlink.com 1.10,2013-09-13 15:48:00,
2013-09-13 11:03:00,69.9,53.0,30.12,NNW,328,4.0,11.0,56,0.00,,,0.00,weatherlink.com 1.10,2013-09-13 16:03:00,
2013-09-13 11:18:00,71.0,53.0,30.12,NNE,30,7.0,12.0,54,0.00,,,0.00,weatherlink.com 1.10,2013-09-13 16:18:00,
2013-09-13 11:33:00,70.7,52.0,30.12,NNE,15,5.0,11.0,52,0.00,,,0.00,weatherlink.com 1.10,2013-09-13 16:33:00,
2013-09-13 11:48:00,71.2,51.0,30.12,NNE,23,5.0,14.0,49,0.00,,,0.00,weatherlink.com 1.10,2013-09-13 16:48:00,
2013-09-13 12:03:00,70.4,52.0,30.11,North,349,8.0,13.0,53,0.00,,,0.00,weatherlink.com 1.10,2013-09-13 17:03:00,
2013-09-13 12:18:00,72.1,53.0,30.11,NNE,21,5.0,14.0,51,0.00,,,0.00,weatherlink.com 1.10,2013-09-13 17:18:00,
2013-09-13 12:33:00,72.2,52.0,30.10,North,9,10.0,13.0,49,0.00,,,0.00,weatherlink.com 1.10,2013-09-13 17:33:00,
2013-09-13 12:48:00,72.9,51.0,30.09,NNE,21,2.0,11.0,47,0.00,,,0.00,weatherlink.com 1.10,2013-09-13 17:48:00,
2013-09-13 13:03:00,72.9,53.0,30.09,NNE,33,4.0,15.0,50,0.00,,,0.00,weatherlink.com 1.10,2013-09-13 18:03:00,
2013-09-13 13:18:00,73.2,51.0,30.09,North,350,5.0,14.0,46,0.00,,,0.00,weatherlink.com 1.10,2013-09-13 18:18:00,
2013-09-13 13:33:00,73.4,52.0,30.08,ENE,78,8.0,12.0,47,0.00,,,0.00,weatherlink.com 1.10,2013-09-13 18:33:00,
2013-09-13 13:48:00,73.2,52.0,30.07,NNE,27,4.0,11.0,47,0.00,,,0.00,weatherlink.com 1.10,2013-09-13 18:48:00,
2013-09-13 14:03:00,74.3,52.0,30.07,North,11,10.0,18.0,46,0.00,,,0.00,weatherlink.com 1.10,2013-09-13 19:03:00,
2013-09-13 14:18:00,74.0,51.0,30.07,ENE,67,9.0,11.0,45,0.00,,,0.00,weatherlink.com 1.10,2013-09-13 19:18:00,
2013-09-13 14:33:00,74.2,51.0,30.06,NNE,12,11.0,14.0,45,0.00,,,0.00,weatherlink.com 1.10,2013-09-13 19:33:00,
2013-09-13 14:48:00,73.8,51.0,30.06,NNE,22,10.0,14.0,45,0.00,,,0.00,weatherlink.com 1.10,2013-09-13 19:48:00,
2013-09-13 15:03:00,75.2,52.0,30.06,North,349,4.0,14.0,44,0.00,,,0.00,weatherlink.com 1.10,2013-09-13 20:03:00,
2013-09-13 15:18:00,74.8,51.0,30.06,NNW,338,6.0,13.0,43,0.00,,,0.00,weatherlink.com 1.10,2013-09-13 20:18:00,
2013-09-13 15:33:00,74.8,49.0,30.06,NNE,30,5.0,12.0,40,0.00,,,0.00,weatherlink.com 1.10,2013-09-13 20:33:00,
2013-09-13 15:48:00,75.0,49.0,30.05,NNE,24,4.0,12.0,40,0.00,,,0.00,weatherlink.com 1.10,2013-09-13 20:48:00,
2013-09-13 16:03:00,75.1,49.0,30.05,NNE,25,5.0,13.0,40,0.00,,,0.00,weatherlink.com 1.10,2013-09-13 21:03:00,
2013-09-13 16:18:00,74.4,50.0,30.05,North,360,5.0,14.0,42,0.00,,,0.00,weatherlink.com 1.10,2013-09-13 21:18:00,
2013-09-13 16:33:00,74.4,50.0,30.05,NE,41,3.0,11.0,43,0.00,,,0.00,weatherlink.com 1.10,2013-09-13 21:33:00,
2013-09-13 16:49:00,73.5,50.0,30.05,NNE,24,7.0,11.0,43,0.00,,,0.00,weatherlink.com 1.10,2013-09-13 21:49:00,
2013-09-13 17:04:00,73.6,49.0,30.04,NNE,28,7.0,13.0,42,0.00,,,0.00,weatherlink.com 1.10,2013-09-13 22:04:00,
2013-09-13 17:19:00,73.1,49.0,30.05,NNE,25,3.0,11.0,43,0.00,,,0.00,weatherlink.com 1.10,2013-09-13 22:19:00,
2013-09-13 17:34:00,72.6,49.0,30.05,NNE,32,7.0,11.0,44,0.00,,,0.00,weatherlink.com 1.10,2013-09-13 22:34:00,
2013-09-13 17:49:00,72.4,49.0,30.04,North,11,7.0,13.0,43,0.00,,,0.00,weatherlink.com 1.10,2013-09-13 22:49:00,
2013-09-13 18:04:00,71.5,48.0,30.04,North,355,4.0,11.0,44,0.00,,,0.00,weatherlink.com 1.10,2013-09-13 23:04:00,
2013-09-13 18:19:00,71.0,49.0,30.04,NE,37,9.0,11.0,45,0.00,,,0.00,weatherlink.com 1.10,2013-09-13 23:19:00,
2013-09-13 18:34:00,70.5,48.0,30.04,NNE,30,4.0,9.0,45,0.00,,,0.00,weatherlink.com 1.10,2013-09-13 23:34:00,
2013-09-13 18:49:00,69.6,48.0,30.04,North,5,2.0,9.0,46,0.00,,,0.00,weatherlink.com 1.10,2013-09-13 23:49:00,
2013-09-13 19:04:00,68.8,49.0,30.04,NNE,16,3.0,6.0,49,0.00,,,0.00,weatherlink.com 1.10,2013-09-14 00:04:00,
2013-09-13 19:19:00,67.6,49.0,30.04,NNE,20,2.0,5.0,51,0.00,,,0.00,weatherlink.com 1.10,2013-09-14 00:19:00,
2013-09-13 19:34:00,66.3,48.0,30.04,NNE,19,2.0,4.0,53,0.00,,,0.00,weatherlink.com 1.10,2013-09-14 00:34:00,
2013-09-13 19:49:00,65.2,48.0,30.05,NNE,28,1.0,4.0,54,0.00,,,0.00,weatherlink.com 1.10,2013-09-14 00:49:00,
2013-09-13 20:04:00,64.1,48.0,30.05,NNE,28,2.0,4.0,56,0.00,,,0.00,weatherlink.com 1.10,2013-09-14 01:04:00,
2013-09-13 20:19:00,63.4,48.0,30.06,NNE,28,3.0,4.0,58,0.00,,,0.00,weatherlink.com 1.10,2013-09-14 01:19:00,
2013-09-13 20:34:00,62.8,48.0,30.07,NE,51,1.0,4.0,58,0.00,,,0.00,weatherlink.com 1.10,2013-09-14 01:34:00,
2013-09-13 20:49:00,62.3,48.0,30.07,NE,53,3.0,5.0,59,0.00,,,0.00,weatherlink.com 1.10,2013-09-14 01:49:00,
2013-09-13 21:04:00,61.8,47.0,30.07,NNE,32,2.0,4.0,59,0.00,,,0.00,weatherlink.com 1.10,2013-09-14 02:04:00,
2013-09-13 21:19:00,61.3,47.0,30.07,NE,44,2.0,4.0,60,0.00,,,0.00,weatherlink.com 1.10,2013-09-14 02:19:00,
2013-09-13 21:34:00,60.6,47.0,30.07,NE,46,1.0,2.0,61,0.00,,,0.00,weatherlink.com 1.10,2013-09-14 02:34:00,
2013-09-13 21:49:00,59.8,47.0,30.07,NE,55,2.0,4.0,62,0.00,,,0.00,weatherlink.com 1.10,2013-09-14 02:49:00,
2013-09-13 22:04:00,59.1,46.0,30.08,NE,55,1.0,3.0,63,0.00,,,0.00,weatherlink.com 1.10,2013-09-14 03:04:00,
2013-09-13 22:19:00,58.5,46.0,30.08,NE,55,0.0,3.0,64,0.00,,,0.00,weatherlink.com 1.10,2013-09-14 03:19:00,
2013-09-13 22:34:00,57.5,46.0,30.08,NE,55,2.0,3.0,66,0.00,,,0.00,weatherlink.com 1.10,2013-09-14 03:34:00,
2013-09-13 22:49:00,56.3,46.0,30.08,NE,55,0.0,3.0,68,0.00,,,0.00,weatherlink.com 1.10,2013-09-14 03:49:00,
2013-09-13 23:04:00,55.7,46.0,30.08,NE,55,1.0,3.0,69,0.00,,,0.00,weatherlink.com 1.10,2013-09-14 04:04:00,
2013-09-13 23:19:00,54.8,45.0,30.08,NE,55,2.0,3.0,70,0.00,,,0.00,weatherlink.com 1.10,2013-09-14 04:19:00,
2013-09-13 23:34:00,54.4,45.0,30.07,NE,55,1.0,4.0,71,0.00,,,0.00,weatherlink.com 1.10,2013-09-14 04:34:00,
2013-09-13 23:49:00,54.2,45.0,30.08,NE,55,0.0,3.0,71,0.00,,,0.00,weatherlink.com 1.10,2013-09-14 04:49:00,